Regional Weather Roundup
Issued by NWS Kansas City/Pleasant Hill, MO

Home | Current Version | Previous Version | Graphics & Text | Print | Product List | Glossary Off
Versions: 1 2 3 4 5 6 7 8 9 10 11 12 13 14 15 16 17 18 19 20 21 22 23 24 25 26 27 28 29 30 31 32 33 34 35 36 37 38 39 40 41 42 43 44 45 46 47 48 49 50

000
ASUS43 KEAX 230510
RWREAX

WEATHER ROUNDUP FOR EASTERN KANSAS AND NORTHWEST MISSOURI
NATIONAL WEATHER SERVICE KANSAS CITY/PLEASANT HILL MO
1200 AM CDT WED JUL 23 2014

KSZ040-057-103>105-MOZ028-029-037-043-230600-
...KANSAS CITY METROPOLITAN AREA...

CITY           SKY/WX    TMP DP  RH WIND       PRES   REMARKS
K.C. INTL      PTCLDY    82  78  88 N12       30.08R HX  91
K.C. DOWNTOWN  CLEAR     87  78  74 N7        30.05R HX 100
LEES SUMMIT    CLEAR     82  76  81 CALM      30.07R
OLATHE - IXD   CLEAR     84  76  76 E5        30.07R HX  93
OLATHE - OJC   CLEAR     83  76  79 CALM      30.06R HX  91
LAWRENCE       CLEAR     85  78  80 N12       30.07R HAZE    HX  96

$$

MOZ001>008-011>017-020>025-030>033-038>040-044>046-053-054-230600-
...NORTHERN AND CENTRAL MISSOURI...

CITY           SKY/WX    TMP DP  RH WIND       PRES   REMARKS
ST. JOSEPH     PTCLDY    80  71  74 N10       30.10R
MOSBY          PTCLDY    82  77  83 N9        30.06R HX  91
WHITEMAN AFB   PTCLDY    79  72  79 SW3       30.03F
CLINTON        CLEAR     81  79  94 CALM      30.05R FOG
SEDALIA        PTCLDY    82  78  88 S7        30.04F FOG     HX  91
WARSAW         NOT AVBL
MARSHALL       CLEAR     82  82 100 CALM      30.04R FOG     HX  97
CHILLICOTHE      N/A     83  74  74 N10G18    30.08R
KIRKSVILLE     PTCLDY    78  73  84 N8        30.08R

$$

MOZ041-047>049-056>058-063>065-088>090-097-230600-
...EASTERN AND SOUTHERN MISSOURI...

CITY           SKY/WX    TMP DP  RH WIND       PRES   REMARKS
ST. LOUIS INTL CLOUDY    83  72  69 S8        30.01F
SPIRIT OF STL  CLOUDY    81  73  76 S3        29.99S
COLUMBIA       PTCLDY    81  78  91 SW5       30.03S
JEFFERSON CITY PTCLDY    81  77  88 CALM      30.00F
MEXICO         PTCLDY   N/A N/A N/A CALM      30.01F HAZE
HANNIBAL       MOCLDY    81  77  89 CALM      30.03R FOG
ROLLA          PTCLDY    80  73  79 SW9       30.04F
LEBANON        CLEAR     79  75  89 S6        30.08F
OSAGE BEACH    CLEAR     79  73  83 CALM      30.04S
SPRINGFIELD    CLEAR     80  75  84 CALM      30.08S
BRANSON        CLOUDY    77  73  88 SE3       30.11R
NEVADA         CLEAR     81  75  83 SW5       30.06R
JOPLIN         CLEAR     82  75  79 SW8       30.07S
WEST PLAINS    CLEAR     75  69  81 S3        30.11R

$$

IAZ060-094-KSZ022-034>040-054-083-096-NEZ052-066-093-230600-
...KANSAS...SOUTHEAST NEBRASKA AND IOWA...

CITY           SKY/WX    TMP DP  RH WIND       PRES   REMARKS
TOPEKA         CLEAR     84  79  85 N12       30.08R HX  96
MANHATTAN      CLEAR     84  75  74 NE14      30.10R HX  92
EMPORIA        CLEAR     83  72  69 N8        30.07R
CHANUTE        CLEAR     81  75  82 SW9       30.06S
WICHITA        CLEAR     81  73  76 CALM      30.09R
OMAHA          PTCLDY    73  66  78 N8        30.16R
LINCOLN        CLEAR     74  67  78 N10       30.17R
FALLS CITY     CLEAR     77  71  82 NE9       30.11R
LAMONI         CLEAR     74  68  81 N9        30.12R
DES MOINES     CLEAR     76  64  66 N12       30.12R

$$



USA.gov is the U.S. government's official web portal to all federal, state and local government web resources and services.